DW6282 Weather Reports


time (UTC)temp
F
wind
direction
speed
knots
gust
knots
rain 1hr
in
rain 24hr
in
rain mn
in
humidity
%
barometer
mb
20260505153012 79 195 1.7 5.2 0.00 0.00 0.00 84 1008.2
20260505151510 80 191 0.9 8.7 0.00 0.00 0.00 84 1008.1
20260505124551 74 182 0.9 6.1 0.00 0.00 0.00 90 1007.7
20260505123048 74 198 0.9 6.1 0.00 0.00 0.00 90 1007.6
20260505121548 74 151 0.9 4.3 0.00 0.00 0.00 91 1007.7
20260505120050 73 162 0.9 6.1 0.00 0.00 0.00 91 1007.8
20260505114546 73 154 0.9 3.5 0.00 0.00 0.00 91 1007.5
20260505113051 73 190 1.7 4.3 0.00 0.00 0.00 91 1007.5
20260505111544 73 148 0.9 1.7 0.00 0.00 0.00 91 1007.7
20260505101558 73 158 0.9 4.3 0.00 0.00 0.00 90 1007.6
20260505100057 73 150 0.0 4.3 0.00 0.00 0.00 89 1007.5
20260505094538 73 215 0.0 3.5 0.00 0.00 0.00 89 1007.7
20260505093038 73 145 0.9 4.3 0.00 0.00 0.00 89 1007.8
20260505091536 73 175 0.0 2.6 0.00 0.00 0.00 89 1007.8
20260505090037 73 220 0.0 2.6 0.00 0.00 0.00 89 1007.9
20260505084537 73 198 0.0 4.3 0.00 0.00 0.00 89 1007.7
20260505083035 73 187 0.0 5.2 0.00 0.00 0.00 88 1007.7
20260505081534 73 134 1.7 5.2 0.00 0.00 0.00 88 1007.9
20260505080037 73 210 1.7 4.3 0.00 0.00 0.00 87 1008.1
20260505074531 73 173 1.7 6.1 0.00 0.00 0.00 87 1008.2
20260505073036 73 174 1.7 6.1 0.00 0.00 0.00 87 1008.2
20260505071527 73 159 1.7 5.2 0.00 0.00 0.00 87 1008.4
20260505070025 73 167 1.7 4.3 0.00 0.00 0.00 87 1008.6
20260505064522 72 193 0.0 5.2 0.00 0.00 0.00 87 1008.9
20260505063020 72 221 0.9 4.3 0.00 0.00 0.00 88 1009.2
20260505061524 72 185 0.9 3.5 0.00 0.00 0.00 87 1009.2
20260505060017 71 215 0.9 2.6 0.00 0.00 0.00 87 1009.1
20260505054517 71 143 0.9 3.5 0.00 0.00 0.00 87 1009.3
20260505053030 71 200 0.9 5.2 0.00 0.00 0.00 86 1009.3
20260505051532 72 210 0.9 6.1 0.00 0.00 0.00 86 1009.4
20260505041510 71 150 0.0 3.5 0.00 0.00 0.00 85 1009.8
20260505040009 71 202 0.9 2.6 0.00 0.00 0.00 85 1009.9
20260505034509 71 162 0.0 3.5 0.00 0.00 0.00 85 1010.2
20260505033008 71 199 1.7 5.2 0.00 0.00 0.00 84 1010.0
20260505031509 72 205 0.0 4.3 0.00 0.00 0.00 83 1010.0
20260505030007 72 199 0.9 3.5 0.00 0.00 0.00 83 1010.1
20260505024508 72 148 0.9 4.3 0.00 0.00 0.00 83 1010.1
20260505023011 72 155 0.9 5.2 0.00 0.00 0.00 82 1010.1
20260505021505 72 222 1.7 5.2 0.00 0.00 0.00 82 1009.9
20260505020005 73 190 1.7 5.2 0.00 0.00 0.00 81 1009.9
20260505014505 73 192 1.7 6.1 0.00 0.00 0.00 81 1009.7
20260505013004 73 180 0.9 6.1 0.00 0.00 0.00 80 1009.8
20260505011503 74 195 0.9 4.3 0.00 0.00 0.00 80 1009.7
20260505010005 74 194 1.7 4.3 0.00 0.00 0.00 80 1009.7
20260505004502 74 198 2.6 6.1 0.00 0.00 0.00 79 1009.5
20260505003003 75 211 2.6 8.7 0.00 0.00 0.00 78 1009.5
20260505001601 76 183 2.6 7.0 0.00 0.00 0.00 77 1009.5
20260505000100 77 103 2.6 7.8 0.00 0.00 0.00 76 1009.7
20260504234558 77 215 1.7 9.6 0.00 0.00 0.00 76 1009.7
20260504233057 78 203 2.6 9.6 0.00 0.00 0.00 75 1009.9
20260504231559 78 203 1.7 7.8 0.00 0.00 0.00 76 1010.0
20260504230054 77 210 4.3 9.6 0.00 0.00 0.00 76 1010.3
20260504224553 77 199 2.6 8.7 0.00 0.00 0.00 76 1010.3
20260504223059 77 174 1.7 6.1 0.00 0.00 0.00 76 1010.6
20260504221601 77 212 2.6 8.7 0.00 0.00 0.00 75 1010.7
20260504220048 77 175 3.5 7.0 0.00 0.00 0.00 75 1010.8
20260504214547 78 191 2.6 7.8 0.00 0.00 0.00 74 1010.9
20260504213059 79 174 3.5 9.6 0.00 0.00 0.00 73 1011.1
20260504211547 79 165 2.6 7.8 0.00 0.00 0.00 73 1011.1
20260504210041 79 210 1.7 7.8 0.00 0.00 0.00 72 1011.4
20260504204539 80 200 2.6 7.0 0.00 0.00 0.00 70 1011.6
20260504203047 81 162 2.6 7.8 0.00 0.00 0.00 69 1011.8
20260504201535 80 210 1.7 8.7 0.00 0.00 0.00 70 1011.9
20260504200034 82 206 1.7 6.1 0.00 0.00 0.00 69 1012.0
20260504194540 82 217 2.6 6.1 0.00 0.00 0.00 66 1012.2
20260504193030 82 204 2.6 7.8 0.00 0.00 0.00 67 1012.6
20260504191537 81 119 2.6 7.0 0.00 0.00 0.00 68 1012.5
20260504190028 81 198 2.6 7.8 0.00 0.00 0.00 67 1012.6
20260504184529 81 165 2.6 7.0 0.00 0.00 0.00 68 1012.7
20260504183025 81 206 3.5 7.0 0.00 0.00 0.00 67 1012.8
20260504181522 81 205 0.9 11.3 0.00 0.00 0.00 71 1013.2
20260504180020 81 200 2.6 9.6 0.00 0.00 0.00 67 1013.3
20260504174519 81 135 2.6 8.7 0.00 0.00 0.00 69 1013.4
20260504173018 80 190 1.7 9.6 0.00 0.00 0.00 70 1013.7
20260504171512 80 233 1.7 8.7 0.00 0.00 0.00 68 1013.9